N62LC KJCT-KCNM

Flight info

Callsign N62LC
Flight time N/A
Altitude 8000
Route DCT COLKO DTC INK
Aircraft A1/M-SGCB2/S

Departure

Time N/A
Airport Kimble County Airport (KJCT)

Arrival

Time 2026-05-05 17:48
Airport Cavern City Air Terminal (KCNM)
Time Latitude Longitude Altitude Speed Heading
2026-05-05 16:49 31.11807 -101.04958 14899 ft 199 kts 295°
2026-05-05 16:49 31.12461 -101.06369 14901 ft 199 kts 295°
2026-05-05 16:49 31.13117 -101.07786 14897 ft 199 kts 295°
2026-05-05 16:49 31.13780 -101.09217 14896 ft 199 kts 295°
2026-05-05 16:50 31.14435 -101.10629 14892 ft 199 kts 295°
2026-05-05 16:50 31.15093 -101.12049 14896 ft 198 kts 295°
2026-05-05 16:50 31.15747 -101.13461 14898 ft 198 kts 295°
2026-05-05 16:50 31.16406 -101.14889 14898 ft 199 kts 295°
2026-05-05 16:51 31.17058 -101.16301 14896 ft 199 kts 295°
2026-05-05 16:51 31.17710 -101.17708 14897 ft 199 kts 295°
2026-05-05 16:51 31.18376 -101.19144 14892 ft 199 kts 295°
2026-05-05 16:51 31.19024 -101.20551 14890 ft 198 kts 295°
2026-05-05 16:52 31.19681 -101.21980 14892 ft 198 kts 295°
2026-05-05 16:52 31.20336 -101.23396 14891 ft 199 kts 295°
2026-05-05 16:52 31.20988 -101.24804 14892 ft 198 kts 295°
2026-05-05 16:52 31.21649 -101.26237 14893 ft 199 kts 295°
2026-05-05 16:53 31.22301 -101.27653 14890 ft 199 kts 295°
2026-05-05 16:53 31.22949 -101.29061 14889 ft 198 kts 295°
2026-05-05 16:53 31.23608 -101.30490 14889 ft 198 kts 295°
2026-05-05 16:53 31.24258 -101.31900 14886 ft 198 kts 295°
2026-05-05 16:54 31.24912 -101.33322 14889 ft 198 kts 295°
2026-05-05 16:54 31.25564 -101.34736 14887 ft 198 kts 295°
2026-05-05 16:54 31.26223 -101.36170 14894 ft 199 kts 295°
2026-05-05 16:54 31.26875 -101.37588 14899 ft 198 kts 295°
2026-05-05 16:55 31.27521 -101.38992 14949 ft 196 kts 295°
2026-05-05 16:55 31.28164 -101.40390 14976 ft 196 kts 295°
2026-05-05 16:55 31.28812 -101.41801 14988 ft 197 kts 295°
2026-05-05 16:55 31.29461 -101.43218 14992 ft 197 kts 295°
2026-05-05 16:56 31.30108 -101.44628 14996 ft 198 kts 295°
2026-05-05 16:56 31.30759 -101.46044 14997 ft 198 kts 295°
2026-05-05 16:56 31.31404 -101.47450 14997 ft 198 kts 295°
2026-05-05 16:56 31.32061 -101.48882 14992 ft 198 kts 295°
2026-05-05 16:57 31.32705 -101.50289 14995 ft 198 kts 295°
2026-05-05 16:57 31.33354 -101.51707 14995 ft 198 kts 295°
2026-05-05 16:57 31.34011 -101.53136 14996 ft 198 kts 295°
2026-05-05 16:57 31.34655 -101.54547 14994 ft 198 kts 295°
2026-05-05 16:58 31.35303 -101.55962 14998 ft 198 kts 295°
2026-05-05 16:58 31.35961 -101.57398 14994 ft 198 kts 295°
2026-05-05 16:58 31.36611 -101.58824 14997 ft 198 kts 295°
2026-05-05 16:58 31.37242 -101.60239 14996 ft 198 kts 294°
2026-05-05 16:59 31.37841 -101.61672 14996 ft 198 kts 292°
2026-05-05 16:59 31.38347 -101.63167 14993 ft 196 kts 287°
2026-05-05 16:59 31.38761 -101.64692 14995 ft 196 kts 286°
2026-05-05 16:59 31.39209 -101.66213 14991 ft 196 kts 289°
2026-05-05 17:00 31.39707 -101.67694 14995 ft 197 kts 289°
2026-05-05 17:00 31.40196 -101.69190 14989 ft 197 kts 288°
2026-05-05 17:00 31.40649 -101.70700 14994 ft 196 kts 287°
2026-05-05 17:00 31.41101 -101.72202 14992 ft 196 kts 288°
2026-05-05 17:01 31.41577 -101.73701 14990 ft 196 kts 289°
2026-05-05 17:01 31.42058 -101.75202 14993 ft 196 kts 288°
2026-05-05 17:01 31.42520 -101.76688 14991 ft 196 kts 288°
2026-05-05 17:01 31.42979 -101.78196 14991 ft 196 kts 288°
2026-05-05 17:02 31.43440 -101.79682 14989 ft 196 kts 288°
2026-05-05 17:02 31.43919 -101.81195 14989 ft 196 kts 288°
2026-05-05 17:02 31.44388 -101.82687 14989 ft 196 kts 288°
2026-05-05 17:02 31.44854 -101.84179 14987 ft 195 kts 288°
2026-05-05 17:03 31.45328 -101.85674 14986 ft 196 kts 288°
2026-05-05 17:03 31.45796 -101.87176 14990 ft 196 kts 288°
2026-05-05 17:03 31.46254 -101.88674 14989 ft 196 kts 288°
2026-05-05 17:03 31.46714 -101.90172 14992 ft 197 kts 288°
2026-05-05 17:04 31.47185 -101.91682 14989 ft 197 kts 288°
2026-05-05 17:04 31.47655 -101.93192 14991 ft 197 kts 288°
2026-05-05 17:04 31.48119 -101.94697 14991 ft 197 kts 288°
2026-05-05 17:04 31.48584 -101.96207 14988 ft 197 kts 288°
2026-05-05 17:05 31.49054 -101.97724 14990 ft 197 kts 288°
2026-05-05 17:05 31.49519 -101.99225 14989 ft 197 kts 288°
2026-05-05 17:05 31.49989 -102.00750 14991 ft 197 kts 288°
2026-05-05 17:05 31.50452 -102.02246 14988 ft 197 kts 288°
2026-05-05 17:06 31.50921 -102.03767 14988 ft 197 kts 288°
2026-05-05 17:06 31.51381 -102.05261 14992 ft 197 kts 288°
2026-05-05 17:06 31.51850 -102.06780 14985 ft 197 kts 288°
2026-05-05 17:06 31.52314 -102.08277 14987 ft 197 kts 288°
2026-05-05 17:07 31.52783 -102.09798 14986 ft 197 kts 287°
2026-05-05 17:07 31.53243 -102.11300 14986 ft 197 kts 287°
2026-05-05 17:07 31.53703 -102.12795 14987 ft 197 kts 287°
2026-05-05 17:07 31.54174 -102.14315 14987 ft 197 kts 287°
2026-05-05 17:08 31.54635 -102.15816 14986 ft 197 kts 287°
2026-05-05 17:08 31.54944 -102.16825 14986 ft 197 kts 287°
2026-05-05 17:08 31.55565 -102.18846 14986 ft 197 kts 287°
2026-05-05 17:08 31.56030 -102.20353 14984 ft 197 kts 287°
2026-05-05 17:09 31.56494 -102.21862 14984 ft 197 kts 287°
2026-05-05 17:09 31.56803 -102.22872 14983 ft 197 kts 287°
2026-05-05 17:09 31.57270 -102.24397 14984 ft 197 kts 287°
2026-05-05 17:09 31.57732 -102.25901 14986 ft 197 kts 287°
2026-05-05 17:10 31.58197 -102.27412 14989 ft 197 kts 287°
2026-05-05 17:10 31.58659 -102.28921 14989 ft 197 kts 287°
2026-05-05 17:10 31.59119 -102.30431 14998 ft 197 kts 287°
2026-05-05 17:10 31.59585 -102.31945 15002 ft 197 kts 287°
2026-05-05 17:11 31.60056 -102.33475 15007 ft 197 kts 287°
2026-05-05 17:11 31.60514 -102.34973 15010 ft 198 kts 286°
2026-05-05 17:11 31.60976 -102.36494 15013 ft 198 kts 287°
2026-05-05 17:11 31.61437 -102.38004 15016 ft 198 kts 287°
2026-05-05 17:12 31.61908 -102.39535 15019 ft 198 kts 287°
2026-05-05 17:12 31.62375 -102.41064 15020 ft 198 kts 286°
2026-05-05 17:12 31.62831 -102.42567 15023 ft 197 kts 287°
2026-05-05 17:12 31.63292 -102.44077 15028 ft 197 kts 286°
2026-05-05 17:13 31.63759 -102.45600 15028 ft 197 kts 286°
2026-05-05 17:13 31.64220 -102.47114 15029 ft 197 kts 286°
2026-05-05 17:13 31.64680 -102.48631 15033 ft 197 kts 286°
2026-05-05 17:13 31.65140 -102.50140 15033 ft 197 kts 286°
2026-05-05 17:14 31.65601 -102.51649 15032 ft 197 kts 286°
2026-05-05 17:14 31.66065 -102.53175 15033 ft 197 kts 286°
2026-05-05 17:14 31.66527 -102.54700 15033 ft 197 kts 286°
2026-05-05 17:14 31.66987 -102.56212 15034 ft 197 kts 286°
2026-05-05 17:15 31.67449 -102.57725 15030 ft 197 kts 286°
2026-05-05 17:15 31.67906 -102.59234 15028 ft 197 kts 286°
2026-05-05 17:15 31.68370 -102.60764 15026 ft 197 kts 286°
2026-05-05 17:15 31.68828 -102.62273 15025 ft 197 kts 286°
2026-05-05 17:16 31.69293 -102.63802 15023 ft 197 kts 286°
2026-05-05 17:16 31.69748 -102.65305 15019 ft 197 kts 285°
2026-05-05 17:16 31.70210 -102.66835 15017 ft 197 kts 285°
2026-05-05 17:16 31.70667 -102.68342 15008 ft 198 kts 285°
2026-05-05 17:17 31.71131 -102.69869 15004 ft 198 kts 285°
2026-05-05 17:17 31.71587 -102.71383 14999 ft 197 kts 285°
2026-05-05 17:17 31.72048 -102.72913 14998 ft 198 kts 285°
2026-05-05 17:17 31.72507 -102.74427 14995 ft 198 kts 285°
2026-05-05 17:18 31.72971 -102.75956 14995 ft 198 kts 285°
2026-05-05 17:18 31.73430 -102.77475 14994 ft 197 kts 285°
2026-05-05 17:18 31.73882 -102.78983 14994 ft 197 kts 285°
2026-05-05 17:18 31.74345 -102.80518 14996 ft 198 kts 285°
2026-05-05 17:19 31.74802 -102.82031 14993 ft 198 kts 285°
2026-05-05 17:19 31.75265 -102.83567 14991 ft 198 kts 285°
2026-05-05 17:19 31.75717 -102.85072 14995 ft 198 kts 285°
2026-05-05 17:19 31.76180 -102.86605 14994 ft 198 kts 285°
2026-05-05 17:20 31.76634 -102.88115 14996 ft 197 kts 285°
2026-05-05 17:20 31.77097 -102.89655 14996 ft 197 kts 285°
2026-05-05 17:20 31.77547 -102.91155 14995 ft 198 kts 285°
2026-05-05 17:20 31.78011 -102.92696 15000 ft 198 kts 285°
2026-05-05 17:21 31.78469 -102.94215 14990 ft 198 kts 284°
2026-05-05 17:21 31.78925 -102.95742 15000 ft 198 kts 284°
2026-05-05 17:21 31.79382 -102.97270 15000 ft 198 kts 284°
2026-05-05 17:22 31.80293 -103.00303 14994 ft 198 kts 284°
2026-05-05 17:22 31.80754 -103.01846 14996 ft 198 kts 284°
2026-05-05 17:22 31.81207 -103.03361 14991 ft 197 kts 284°
2026-05-05 17:22 31.81660 -103.04876 15002 ft 198 kts 284°
2026-05-05 17:23 31.82119 -103.06406 14999 ft 197 kts 284°
2026-05-05 17:23 31.82572 -103.07921 15004 ft 197 kts 284°
2026-05-05 17:23 31.83025 -103.09440 14997 ft 197 kts 284°
2026-05-05 17:23 31.83484 -103.10972 14998 ft 197 kts 284°
2026-05-05 17:24 31.83937 -103.12489 15002 ft 197 kts 284°
2026-05-05 17:24 31.84386 -103.14001 14992 ft 196 kts 284°
2026-05-05 17:24 31.84839 -103.15521 14997 ft 196 kts 284°
2026-05-05 17:24 31.85292 -103.17036 15002 ft 196 kts 284°
2026-05-05 17:25 31.85742 -103.18545 15000 ft 196 kts 284°
2026-05-05 17:25 31.86042 -103.19557 14994 ft 196 kts 284°
2026-05-05 17:25 31.86640 -103.21570 14994 ft 196 kts 284°
2026-05-05 17:25 31.87075 -103.23085 15001 ft 194 kts 280°
2026-05-05 17:26 31.87356 -103.24633 15000 ft 193 kts 276°
2026-05-05 17:26 31.87586 -103.26205 15002 ft 193 kts 276°
2026-05-05 17:26 31.87872 -103.27737 14998 ft 194 kts 279°
2026-05-05 17:26 31.88211 -103.29268 15002 ft 194 kts 279°
2026-05-05 17:27 31.88526 -103.30824 15002 ft 193 kts 277°
2026-05-05 17:27 31.88803 -103.32365 15003 ft 193 kts 277°
2026-05-05 17:27 31.89086 -103.33897 15003 ft 193 kts 278°
2026-05-05 17:27 31.89397 -103.35445 15000 ft 193 kts 278°
2026-05-05 17:28 31.89707 -103.36979 15005 ft 192 kts 278°
2026-05-05 17:28 31.90000 -103.38511 15002 ft 192 kts 277°
2026-05-05 17:28 31.90290 -103.40049 15005 ft 192 kts 277°
2026-05-05 17:28 31.90589 -103.41593 15006 ft 193 kts 278°
2026-05-05 17:29 31.90890 -103.43128 15003 ft 193 kts 278°
2026-05-05 17:29 31.91188 -103.44664 15002 ft 193 kts 278°
2026-05-05 17:29 31.91486 -103.46210 15000 ft 193 kts 278°
2026-05-05 17:29 31.91783 -103.47754 15010 ft 193 kts 277°
2026-05-05 17:30 31.92080 -103.49299 15007 ft 193 kts 277°
2026-05-05 17:30 31.92371 -103.50804 15003 ft 193 kts 277°
2026-05-05 17:30 31.92668 -103.52357 15006 ft 193 kts 277°
2026-05-05 17:30 31.92964 -103.53892 15007 ft 193 kts 277°
2026-05-05 17:31 31.93263 -103.55447 15006 ft 193 kts 277°
2026-05-05 17:31 31.93558 -103.56976 15006 ft 192 kts 277°
2026-05-05 17:31 31.93852 -103.58513 15009 ft 192 kts 277°
2026-05-05 17:31 31.94147 -103.60057 15002 ft 192 kts 277°
2026-05-05 17:32 31.94443 -103.61595 15004 ft 192 kts 277°
2026-05-05 17:32 31.94736 -103.63121 15003 ft 192 kts 277°
2026-05-05 17:32 31.95027 -103.64645 15003 ft 192 kts 277°
2026-05-05 17:32 31.95321 -103.66185 15006 ft 192 kts 277°
2026-05-05 17:33 31.95618 -103.67730 15007 ft 192 kts 277°
2026-05-05 17:33 31.95908 -103.69245 15009 ft 191 kts 277°
2026-05-05 17:33 31.96198 -103.70775 15006 ft 192 kts 277°
2026-05-05 17:33 31.96498 -103.72355 15006 ft 196 kts 277°
2026-05-05 17:34 31.96793 -103.73894 15002 ft 193 kts 277°
2026-05-05 17:34 31.97087 -103.75425 14921 ft 194 kts 277°
2026-05-05 17:34 31.97384 -103.77003 14569 ft 198 kts 277°
2026-05-05 17:34 31.97690 -103.78598 14220 ft 199 kts 277°
2026-05-05 17:35 31.97994 -103.80181 13875 ft 201 kts 277°
2026-05-05 17:35 31.98300 -103.81804 13525 ft 202 kts 277°
2026-05-05 17:35 31.98604 -103.83424 13145 ft 205 kts 277°
2026-05-05 17:35 31.98917 -103.85079 12761 ft 207 kts 278°
2026-05-05 17:36 31.99232 -103.86728 12385 ft 209 kts 278°
2026-05-05 17:36 31.99553 -103.88415 12008 ft 210 kts 278°
2026-05-05 17:36 31.99869 -103.90089 11642 ft 211 kts 279°
2026-05-05 17:36 32.00190 -103.91793 11272 ft 211 kts 279°
2026-05-05 17:37 32.00505 -103.93470 10917 ft 212 kts 279°
2026-05-05 17:37 32.00718 -103.94601 10678 ft 212 kts 280°
2026-05-05 17:37 32.01146 -103.96861 10210 ft 213 kts 280°
2026-05-05 17:37 32.01471 -103.98576 9855 ft 213 kts 281°
2026-05-05 17:38 32.01789 -104.00270 9552 ft 210 kts 281°
2026-05-05 17:38 32.02103 -104.01942 9249 ft 211 kts 281°
2026-05-05 17:38 32.02422 -104.03644 8951 ft 217 kts 281°
2026-05-05 17:38 32.02754 -104.05399 8647 ft 218 kts 281°
2026-05-05 17:39 32.03084 -104.07136 8354 ft 220 kts 281°
2026-05-05 17:39 32.03421 -104.08908 8059 ft 221 kts 281°
2026-05-05 17:39 32.03752 -104.10696 7780 ft 222 kts 281°
2026-05-05 17:39 32.04075 -104.12467 7504 ft 223 kts 281°
2026-05-05 17:40 32.04414 -104.14278 7212 ft 224 kts 281°
2026-05-05 17:40 32.04753 -104.16062 6939 ft 225 kts 281°
2026-05-05 17:40 32.05093 -104.17862 6662 ft 227 kts 281°
2026-05-05 17:40 32.05433 -104.19693 6377 ft 228 kts 281°
2026-05-05 17:41 32.05890 -104.21488 6110 ft 227 kts 291°
2026-05-05 17:41 32.06583 -104.23143 5811 ft 224 kts 296°
2026-05-05 17:41 32.07337 -104.24747 5523 ft 224 kts 297°
2026-05-05 17:41 32.08110 -104.26322 5226 ft 222 kts 298°
2026-05-05 17:42 32.08896 -104.27890 4944 ft 222 kts 298°
2026-05-05 17:42 32.09786 -104.29346 4672 ft 220 kts 314°
2026-05-05 17:42 32.10945 -104.30492 4377 ft 209 kts 307°
2026-05-05 17:42 32.11633 -104.31913 4215 ft 198 kts 292°
2026-05-05 17:43 32.12151 -104.33402 4151 ft 192 kts 289°
2026-05-05 17:43 32.12607 -104.34840 4115 ft 184 kts 288°
2026-05-05 17:43 32.13035 -104.36245 4237 ft 177 kts 287°
2026-05-05 17:43 32.13470 -104.37648 4587 ft 189 kts 290°
2026-05-05 17:44 32.14076 -104.39035 4975 ft 197 kts 306°
2026-05-05 17:44 32.15175 -104.40066 5397 ft 206 kts 324°
2026-05-05 17:44 32.16508 -104.40746 5767 ft 217 kts 339°
2026-05-05 17:44 32.18093 -104.40689 5946 ft 239 kts
2026-05-05 17:45 32.19693 -104.39973 6032 ft 254 kts 23°
2026-05-05 17:45 32.21235 -104.38869 6086 ft 260 kts 28°
2026-05-05 17:45 32.22741 -104.37679 6120 ft 262 kts 29°
2026-05-05 17:45 32.24190 -104.36468 6130 ft 248 kts 31°
2026-05-05 17:46 32.25472 -104.35293 6130 ft 225 kts 37°
2026-05-05 17:46 32.26539 -104.34041 6064 ft 211 kts 41°
2026-05-05 17:46 32.27588 -104.32732 5447 ft 224 kts 41°
2026-05-05 17:46 32.28672 -104.31469 5198 ft 213 kts 39°
2026-05-05 17:47 32.29611 -104.30141 4473 ft 198 kts 45°
2026-05-05 17:47 32.30518 -104.29084 3995 ft 167 kts 30°
2026-05-05 17:47 32.31356 -104.28288 3709 ft 147 kts 34°
2026-05-05 17:47 32.32098 -104.27530 3432 ft 136 kts 36°
2026-05-05 17:48 32.32766 -104.26815 3295 ft 117 kts 36°
2026-05-05 17:48 32.33097 -104.26410 3277 ft 87 kts 33°
2026-05-05 17:48 32.33425 -104.26136 3266 ft 46 kts 53°
2026-05-05 17:48 32.33589 -104.25913 3261 ft 33 kts 39°
2026-05-05 17:49 32.33775 -104.25705 3255 ft 25 kts 42°
2026-05-05 17:49 32.33860 -104.25607 3253 ft 26 kts 49°
2026-05-05 17:49 32.33995 -104.25446 3248 ft 29 kts 44°
2026-05-05 17:49 32.34161 -104.25306 3246 ft 30 kts 20°
2026-05-05 17:50 32.34306 -104.25331 3247 ft 17 kts 338°
2026-05-05 17:50 32.34415 -104.25366 3248 ft 16 kts 359°
2026-05-05 17:50 32.34522 -104.25367 3249 ft 14 kts 342°
2026-05-05 17:50 32.34566 -104.25360 3249 ft 8 kts 34°
2026-05-05 17:51 32.34575 -104.25359 3249 ft 0 kts 247°